Regional Weather Roundup
Issued by NWS Cleveland, OH

Home | Current Version | Previous Version | Graphics & Text | Print | Product List | Glossary On
Versions: 1 2 3 4 5 6 7 8 9 10 11 12 13 14 15 16 17 18 19 20 21 22 23 24 25 26 27 28 29 30 31 32 33 34 35 36 37 38 39 40 41 42 43 44 45 46 47 48 49 50
921
ASUS41 KCLE 300000
RWRCLE
OHIO REGIONAL WEATHER ROUNDUP
NATIONAL WEATHER SERVICE WILMINGTON, OH
800 PM EDT FRI JUL 29 2016

NOTE: "FAIR" INDICATES FEW OR NO CLOUDS BELOW 12,000 FEET WITH NO
SIGNIFICANT WEATHER AND/OR OBSTRUCTIONS TO VISIBILITY.

OHZ001>008-015>018-024>027-034-035-043-044-300100-
   NORTHWEST OHIO

CITY           SKY/WX    TMP DP  RH WIND       PRES   REMARKS
DEFIANCE       LGT RAIN  77  66  68 E9        29.93R
FINDLAY        MOCLDY    76  68  76 E7        29.93R
TOLEDO EXPRESS FAIR      74  70  87 E8        29.93R
TOLEDO EXEC    MOCLDY    78  72  81 E8        29.95R
LIMA           MOCLDY    76  68  76 NE6       29.93R
$$

OHZ009>014-019>023-028>033-038-089-300100-
   NORTHEAST OHIO

CITY           SKY/WX    TMP DP  RH WIND       PRES   REMARKS
CLE-HOPKINS    CLOUDY    80  63  55 E8        29.96R
CLE-LAKEFRONT  FAIR      81  65  58 E7        29.92S
CUY CO. ARPT   MOCLDY    81  70  69 E9        29.95R
LORAIN-ELYRIA  LGT RAIN  75  68  78 CALM      29.95S
ASHTABULA      FAIR      74  70  87 SE3       29.98R
AKRON-CANTON   CLOUDY    77  64  64 E16       29.97R
WOOSTER        NOT AVBL
MANSFIELD      FAIR      73  66  78 NE6       29.96S
YOUNGSTOWN     CLOUDY    71  67  87 NE7       29.96S
$$

OHZ042-051>053-060>062-070>072-077>081-300100-
  SOUTHWEST OHIO

CITY           SKY/WX    TMP DP  RH WIND       PRES   REMARKS
CINC-COVINGTON MOCLDY    83  72  69 NW8       29.90R
CINC-LUNKEN    LGT RAIN  77  72  84 NE10      29.89R
HAMILTON       MOCLDY    79  69  71 N13       29.91R
DAYTON         NOT AVBL
WRIGHT-PAT AFB NOT AVBL
DAYTON GENERAL MOCLDY    75  67  76 N8        29.93R
WILMINGTON     LGT RAIN  72  69  90 NW8       29.92F
$$

OHZ036-037-039>041-045>050-054>059-063>069-073>076-082>088-300100-
  CENTRAL AND SOUTHEAST OHIO

CITY           SKY/WX    TMP DP  RH WIND       PRES   REMARKS
COLUMBUS       MOCLDY    80  67  64 S5        29.91R
OSU AIRPORT    FAIR      77  70  79 CALM      29.92R
BOLTON FIELD   NOT AVBL
RICKENBACK AFB NOT AVBL
NEWARK         CLOUDY    76  63  64 E8        29.92R
MARION         FAIR      76  66  71 NE8       29.94R
LANCASTER      FAIR      79  72  79 S6        29.92S
ZANESVILLE     FAIR      82  70  66 SW6       29.93R
NEW PHILLY     FAIR      81  66  60 NW7       29.94R
$$




USA.gov is the U.S. government's official web portal to all federal, state and local government web resources and services.